Location: ?????
(41.5425°N, 20.4883°E)
Time: 19:43:09
(UTC+00:00)

Daily predictions for brighter satellites

Satellite Brightness Start Highest point End
(mag) Time Altitude Azimuth Time Altitude Azimuth Time Altitude Azimuth
Cosmos 1607 4.5 18:25:31 10° NW 18:31:51 63° WSW 18:38:10 10° SSE
STARLINK-1254 3.7 18:30:02 10° SW 18:34:10 83° NW 18:38:19 10° NE
STARLINK-1166 3.9 18:31:30 10° WNW 18:35:36 63° SW 18:39:41 10° SE
Meteor 1-18 Rocket 4.4 18:30:54 10° SSE 18:36:15 52° E 18:41:42 10° NNE
FREGAT/IRIS 3.7 18:34:33 10° S 18:37:04 39° W 18:39:37 10° NNW
Cosmos 389 Rocket 2.4 18:35:19 10° S 18:38:44 77° E 18:42:14 10° NNE
STARLINK-1231 3.9 18:35:00 10° WSW 18:39:08 76° NW 18:43:17 10° NE
Cosmos 1844 4.3 18:33:37 10° SW 18:39:12 65° WNW 18:44:56 10° NNE
STARLINK-1165 4.0 18:36:30 10° WNW 18:40:34 57° SW 18:44:38 10° SE
Cosmos 1544 4.2 18:38:13 10° NNE 18:41:24 28° ENE 18:44:32 10° SE
CZ-2C R/B 3.6 18:37:59 10° NNE 18:42:28 74° ESE 18:46:59 10° S
STARLINK-1232 4.0 18:40:01 10° WSW 18:44:08 70° NW 18:48:16 10° NE
SL-08 RB Rocket 4.2 18:40:51 10° S 18:45:25 65° W 18:49:59 10° NNW
Cosmos 1356 3.9 18:42:07 10° N 18:45:27 44° ENE 18:48:45 10° SSE
STARLINK-1169 4.2 18:41:29 10° WNW 18:45:31 52° SW 18:49:32 10° SSE
COSMOS 2406 3.8 18:40:05 10° NNW 18:45:36 44° ENE 18:51:04 10° SE
NOSS 2-3 (D) 3.5 18:41:47 10° SSW 18:45:57 79° ESE 18:50:45 10° NE
STARLINK-1224 4.5 18:43:05 10° S 18:46:37 28° SE 18:50:10 10° ENE
Cosmos 2034 Rocket 4.0 18:41:01 10° N 18:47:15 90° ENE 18:53:24 10° S
STARLINK-1066 4.5 18:43:51 10° NW 18:47:49 42° NNE 18:51:45 10° ESE
Meteor 2-4 Rocket 4.4 18:43:11 10° SSE 18:47:54 32° E 18:52:36 10° NNE
STARLINK-1208 4.1 18:45:01 10° WSW 18:49:07 64° NW 18:53:15 10° NE
STARLINK-1087 3.1 18:48:16 10° WNW 18:50:01 28° SW 18:51:32 12° SSE
STARLINK-1178 4.3 18:46:30 10° WNW 18:50:30 47° SW 18:54:28 10° SSE
BREEZE-M DEB (TANK) 2.5 18:48:58 10° WNW 18:51:21 55° SW 18:53:28 12° SE
STARLINK-1225 4.4 18:47:56 10° SSW 18:51:35 30° SE 18:55:13 10° ENE
STARLINK-1081 4.4 18:48:47 10° NW 18:52:47 45° NNE 18:56:46 10° ESE
SJ-6B 3.8 18:50:29 10° S 18:54:04 43° W 18:57:38 10° NNW
STARLINK-1271 4.3 18:50:01 10° WSW 18:54:06 59° NW 18:58:12 10° NE
STARLINK-1120 4.4 18:51:31 10° WNW 18:55:28 43° SW 18:59:17 10° SSE
STARLINK-1230 4.2 18:52:47 10° SSW 18:56:31 33° SE 19:00:15 10° ENE
USA 229 DEB 4.5 18:50:32 10° SW 18:56:54 56° NW 19:03:38 10° NNE
USA 229 4.5 18:50:39 10° SW 18:57:01 56° NW 19:03:44 10° NNE
Cosmos 1782 Rocket 3.7 18:53:04 10° N 18:57:32 61° E 19:01:57 10° SSE
STARLINK-1070 4.3 18:53:45 10° NW 18:57:47 49° NNE 19:01:35 11° ESE
Hubble Space Telescope 2.9 18:56:20 10° SSW 18:58:04 12° S 18:59:49 10° SSE
BREEZE-M DEB (TANK) 4.3 18:50:38 10° WSW 18:59:02 60° NNW 19:02:42 10° NE
STARLINK-1154 4.5 18:55:01 10° WSW 18:59:04 54° NNW 19:03:09 10° NE
Resurs 01 Rocket 1.8 18:54:45 10° SSE 18:59:08 62° ENE 19:03:32 10° N
Cosmos 1452 Rocket 4.5 18:56:20 10° SSE 19:00:42 27° E 19:05:06 10° NE
STARLINK-1243 4.1 18:57:39 10° SSW 19:01:28 37° SE 19:05:18 10° ENE
Cosmos 1703 Rocket 3.7 18:57:23 10° SSW 19:01:42 75° W 19:06:03 10° N
Cosmos 407 Rocket 3.6 18:56:26 10° NNW 19:01:49 85° ENE 19:07:10 10° SSE
Sich 1 Rocket 4.1 18:57:58 10° N 19:02:24 45° ENE 19:06:18 13° SSE
STARLINK-1069 4.1 18:58:43 10° NW 19:02:47 52° NNE 19:06:23 13° ESE
MetOp-A 4.5 18:58:05 10° S 19:03:25 69° WSW 19:08:46 10° NNW
Cosmos 1420 Rocket 4.4 18:59:29 10° S 19:04:22 42° ESE 19:09:15 10° NNE
NOSS 3-1 (A) 3.8 19:00:41 10° SW 19:06:03 65° NW 19:12:19 10° NNE
STARLINK-1236 4.0 19:02:33 10° SSW 19:06:26 41° SE 19:10:20 10° ENE
STARLINK-1085 4.0 19:03:42 10° NW 19:07:47 57° NNE 19:11:11 14° ESE
BREEZE-M DEB 4.3 19:10:59 12° E 19:10:59 12° E 19:11:34 10° E
GPS 2-04 Rocket1 3.9 19:09:14 10° SSW 19:11:54 20° SSE 19:12:54 18° SE
STARLINK-1086 3.9 19:08:39 10° NW 19:12:46 62° NE 19:15:57 16° ESE
Abrixas rocket 4.4 19:10:43 10° WNW 19:13:04 21° N 19:15:27 10° NE
ERBS 2.1 19:10:04 10° SW 19:13:21 86° SE 19:16:40 10° NE
Cosmos 1743 3.7 19:09:49 10° NNW 19:13:29 46° W 19:17:06 10° SSW
Okean 2 Rocket 3.8 19:10:32 10° N 19:14:39 36° ENE 19:17:28 18° SE
Cosmos 2082 Rocket 3.3 19:11:01 10° N 19:16:04 31° NE 19:20:07 14° ESE
STARLINK-1269 3.7 19:12:19 10° SSW 19:16:19 49° SE 19:20:20 10° ENE
STARLINK-1095 3.8 19:13:38 10° NW 19:17:46 67° NE 19:20:44 18° ESE
CZ-2C R/B 3.4 19:12:31 10° N 19:18:02 60° WNW 19:23:32 10° SSW
Cosmos 1833 Rocket 3.1 19:13:03 10° NNW 19:18:32 50° ENE 19:22:36 18° SE
Cosmos 724 4.4 19:13:02 10° NW 19:18:57 78° WSW 19:23:59 15° SSE
Iridium 51 4.2 19:16:46 10° S 19:20:51 88° W 19:24:38 10° N
STARLINK-1200 3.6 19:17:16 10° SW 19:21:18 55° SE 19:25:22 10° ENE
STARLINK-1077 3.7 19:18:35 10° NW 19:22:43 73° NE 19:25:30 20° ESE
SPOT 3 Rocket 4.4 19:20:26 10° S 19:25:22 47° W 19:30:21 10° NNW
STARLINK-1192 3.6 19:22:12 10° SW 19:26:17 60° SE 19:30:22 10° ENE
Cosmos 1634 Rocket 4.0 19:20:09 10° N 19:26:30 81° E 19:32:16 13° S
Cosmos 1190 Rocket 4.2 19:21:33 10° NNW 19:26:44 70° WSW 19:31:15 14° S
Cosmos 1140 Rocket 3.6 19:22:16 10° NNW 19:27:28 76° WSW 19:31:47 15° S
STARLINK-1075 3.6 19:23:34 10° NW 19:27:44 80° NE 19:30:18 22° ESE
Cosmos 2151 Rocket 4.4 19:24:12 10° N 19:28:24 36° ENE 19:30:45 21° SE
SL-4 R/B 2.9 19:26:29 10° N 19:29:05 24° NE 19:30:14 19° E
BREEZE M DEB (TANK) 3.2 19:20:43 10° SW 19:29:22 74° SSE 19:32:17 10° ENE
GENESIS II 4.3 19:26:03 10° NNW 19:30:04 69° NE 19:32:17 24° SE
IGS 5A 3.8 19:28:13 21° SE 19:30:40 48° ENE 19:34:41 10° N
STARLINK-1244 3.5 19:27:09 10° SW 19:31:15 67° SE 19:35:22 10° ENE
Aureole 1 Rocket 3.7 19:27:44 10° NNW 19:32:07 64° WSW 19:37:04 14° S
Meteor 2-9 Rocket 4.2 19:26:46 10° NNW 19:32:09 74° W 19:37:01 12° S
SPOT 1/Viking Rocket 4.0 19:28:52 20° SE 19:32:13 47° ENE 19:37:09 10° N
STARLINK-1093 3.6 19:28:32 10° NW 19:32:42 86° NE 19:35:05 25° SE
Terra 3.4 19:30:23 15° E 19:32:45 21° ENE 19:36:16 10° NNE
STARLINK-1138 3.5 19:32:04 10° SW 19:36:11 73° SE 19:40:20 10° NE
Okean 3 3.4 19:32:50 11° S 19:36:58 86° E 19:41:18 10° N
STARLINK-1074 3.5 19:33:31 10° NW 19:37:41 86° SW 19:39:52 27° SE
ISS -2.0 19:37:25 10° NW 19:40:23 27° NNE 19:42:40 14° ENE
STARLINK-1143 3.5 19:37:01 10° SW 19:41:10 80° SE 19:45:19 10° NE
ERS-1 Rocket 3.6 19:40:08 23° SE 19:42:50 42° ENE 19:47:34 10° N
CARTOSAT-1 4.4 19:41:08 24° ESE 19:43:00 35° ENE 19:46:57 10° N
Cosmos 371 Rocket 3.2 19:38:31 10° S 19:43:18 67° ESE 19:48:09 10° NNE
Cosmos 1461 3.7 19:43:36 28° SE 19:44:12 30° ESE 19:47:55 10° NE
STARLINK-1241 3.5 19:42:01 10° SW 19:46:09 88° SE 19:50:19 10° NE
Lacrosse 5 2.5 19:41:36 10° NW 19:46:31 48° NE 19:49:40 21° ESE
Crew Dragon 2.5 19:45:37 10° NNW 19:47:13 17° NNE 19:47:56 15° NE
Cosmos 2278 Rocket 2.6 19:41:43 10° SSW 19:47:21 68° WNW 19:53:01 10° NNE
STARLINK-1088 3.6 19:43:29 10° NW 19:47:37 72° SW 19:49:26 32° SE
Meteor 1-4 Rocket 4.1 19:44:34 10° SW 19:47:43 33° WNW 19:50:53 10° N
STARLINK-1203 3.6 19:43:38 10° SW 19:47:50 89° NW 19:52:04 10° NE
STARLINK-1239 3.6 19:46:58 10° SW 19:51:07 85° NW 19:55:16 10° NE
Cosmos 1954 Rocket 4.2 19:47:12 10° NNW 19:52:27 72° WSW 19:55:47 23° S
STARLINK-1115 3.7 19:48:29 10° WNW 19:52:35 66° SW 19:54:12 34° SSE
STARLINK-1240 3.7 19:51:59 10° SW 19:56:07 79° NW 20:00:16 10° NE
Spot 2 Rocket 3.6 19:53:10 22° S 19:56:30 74° WSW 20:01:33 10° NNW
STARLINK-1076 3.8 19:53:28 10° WNW 19:57:33 60° SW 19:58:59 36° SSE
STARLINK-1216 3.8 19:56:57 10° WSW 20:01:05 72° NW 20:05:14 10° NE
NOSS 8 (F) 4.0 19:59:35 20° SSW 20:01:44 77° SE 20:04:47 10° NE
STARLINK-1092 3.9 19:58:26 10° WNW 20:02:29 54° SW 20:03:44 38° SSE
Cosmos 1300 Rocket 3.7 19:58:37 10° NNW 20:03:04 75° W 20:05:20 28° S
STARLINK-1237 4.0 20:01:57 10° WSW 20:06:04 66° NW 20:10:12 10° NE
EXPRESS MD2 3.2 20:04:13 10° SW 20:07:16 80° SE 20:13:06 10° ENE
STARLINK-1080 4.1 20:03:30 10° WNW 20:07:31 49° SW 20:08:35 38° S
Cosmos 1437 Rocket 2.5 20:08:10 38° S 20:09:32 88° ESE 20:13:21 10° N
STARLINK-1083 4.5 20:05:45 10° NW 20:09:44 44° NNE 20:11:36 26° E
STARLINK-1202 4.1 20:06:58 10° WSW 20:11:04 61° NW 20:15:11 10° NE
STARLINK-1090 4.2 20:08:29 10° WNW 20:12:27 44° SW 20:13:21 38° S
Cosmos 1331 Rocket 4.4 20:12:10 35° SE 20:13:24 41° ESE 20:18:14 10° NNE
STARLINK-1125 4.3 20:10:43 10° NW 20:14:44 47° NNE 20:16:23 30° E
STARLINK-1089 4.3 20:13:30 10° WNW 20:17:24 40° SW 20:18:07 36° SSW
Cosmos 1674 Rocket 3.5 20:15:46 34° S 20:17:39 86° W 20:22:04 10° N
STARLINK-1109 4.2 20:15:41 10° NW 20:19:44 51° NNE 20:21:11 34° E
STARLINK-1246 4.4 20:17:00 10° WSW 20:21:03 52° NNW 20:25:06 10° NE
SPOT 5 3.0 20:19:10 37° SSE 20:21:16 84° ENE 20:26:37 10° NNW
STARLINK-1107 4.4 20:18:31 10° WNW 20:22:19 36° SW 20:22:53 35° SSW
Cosmos 1378 Rocket 3.4 20:21:45 43° S 20:23:11 82° E 20:27:36 10° N
Aureole 2 Rocket 2.5 20:24:35 54° NE 20:24:35 54° NE 20:27:06 10° NNE
STARLINK-1091 4.1 20:20:38 10° NW 20:24:43 55° NNE 20:25:56 38° E
Cosmos 304 Rocket 3.6 20:22:44 34° S 20:24:47 79° ESE 20:29:35 10° NNE
STARLINK-1072 3.9 20:25:37 10° NW 20:29:43 60° NE 20:30:44 44° E
STARLINK-1096 3.8 20:30:35 10° NW 20:34:42 65° NE 20:35:31 51° E
Cosmos 1766 3.9 20:31:02 10° N 20:34:48 40° ENE 20:34:51 40° E
Resurs 01 Rocket 4.3 20:34:11 10° WSW 20:36:00 12° W 20:37:51 10° WNW
Cosmos 1733 4.3 20:32:55 10° NNE 20:36:08 31° ENE 20:36:08 31° ENE
Cosmos 1975 Rocket 3.7 20:37:21 38° E 20:37:21 38° E 20:41:26 10° NNE
Meteor 1-23 Rocket 4.3 20:34:41 28° SSW 20:37:50 78° W 20:43:31 10° N
ATLAS 3B CENTAUR R/B 4.0 20:31:02 10° SW 20:38:13 24° SSW 20:38:13 24° SSW
STARLINK-1079 3.7 20:35:34 10° NW 20:39:42 71° NE 20:40:19 59° E
NOSS 2-2 (D) 3.5 20:42:58 50° ENE 20:42:58 50° ENE 20:45:57 10° NE
Nadezhda 4 Rocket 4.0 20:39:33 29° SSW 20:42:51 79° W 20:49:01 10° N
STARLINK-1116 3.5 20:40:31 10° NW 20:44:40 77° NE 20:45:04 68° E
Cosmos 2297 3.8 20:43:12 23° SSW 20:46:54 77° WNW 20:52:38 10° NNE
Abrixas rocket 3.8 20:46:35 10° NW 20:49:11 27° NNE 20:49:18 27° NNE
Thor Agena Rocket 3.9 20:47:25 10° NNE 20:52:31 45° E 20:52:56 44° ESE
STARLINK-1094 3.5 20:50:30 10° NW 20:54:39 89° SW 20:54:39 89° SW
Meteor 1-22 Rocket 4.3 20:50:37 10° N 20:56:32 68° ENE 20:57:58 50° SE
CENTAUR R/B 4.3 20:51:17 10° NNW 20:58:31 36° NE 21:05:20 14° E
Cosmos 1378 3.4 20:59:29 61° W 20:59:29 61° W 21:03:10 10° N
STARLINK-1117 3.5 20:55:28 10° NW 20:59:26 78° W 20:59:26 78° W
Cosmos 2082 Rocket 3.1 20:54:56 10° NW 21:00:13 40° WSW 21:01:58 32° SW
NOSS 2-2 (E) 3.6 20:59:56 50° W 21:00:27 56° NW 21:04:19 10° NNE
SL-4 R/B 3.9 21:00:04 10° WNW 21:01:02 14° W 21:01:02 14° W
Cosmos 1833 Rocket 4.4 20:57:46 10° NW 21:02:04 23° W 21:04:18 18° SW
Okean 1 Rocket 3.7 20:58:15 10° NNW 21:02:33 47° W 21:03:19 42° SW
STARLINK-1078 3.7 21:00:28 10° NW 21:04:14 68° W 21:04:14 68° W
STARLINK-1108 3.9 21:05:27 10° WNW 21:09:00 59° W 21:09:00 59° W
EO 1 Del DPAF 4.0 21:06:14 10° NNE 21:09:01 42° NE 21:09:01 42° NE
Cosmos 1025 Rocket 4.5 21:10:59 26° ENE 21:10:59 26° ENE 21:13:47 10° NNE
Terra 2.5 21:09:16 39° SW 21:10:10 43° W 21:14:44 10° NNW
Cosmos 1943 Rocket 2.0 21:09:27 59° S 21:10:27 75° ESE 21:16:02 10° NNE
Cosmos 2369 Rocket 2.3 21:10:40 53° ESE 21:11:01 54° ESE 21:16:32 10° NNE
Cosmos 1455 Rocket 3.2 21:08:08 10° N 21:12:15 58° ENE 21:12:15 58° ENE
STARLINK-1071 4.1 21:10:26 10° WNW 21:13:47 51° W 21:13:47 51° W
Cosmos 1470 4.0 21:12:50 10° N 21:15:44 33° NE 21:15:44 33° NE
ISS -1.7 21:14:02 10° WNW 21:15:35 24° WNW 21:15:35 24° WNW
SeaSat 1 2.3 21:12:26 10° NNE 21:17:24 90° E 21:18:10 65° SSW
STARLINK-1110 4.3 21:14:29 10° WNW 21:17:39 45° W 21:17:39 45° W
Meteor 2-13 Rocket 4.3 21:18:05 55° S 21:19:33 80° E 21:25:44 10° N
Cosmos 1805 4.1 21:17:08 10° NNW 21:20:39 43° W 21:20:39 43° W
NOSS 2-2 (C) 4.2 21:23:36 38° WNW 21:24:05 40° NW 21:27:46 10° NNE
Cosmos 1092 Rocket 4.3 21:21:45 37° SW 21:24:06 60° W 21:30:11 10° N
ATLAS 2AS CENTAUR R/B 3.3 21:23:53 43° SE 21:25:06 45° ESE 21:32:35 10° NE
Spot 4 3.9 21:25:29 64° E 21:25:46 66° ENE 21:30:36 10° N
Lacrosse 5 3.0 21:24:54 10° WNW 21:28:51 30° WSW 21:28:51 30° WSW
Cosmos 1726 4.3 21:26:43 10° NNE 21:28:37 18° NE 21:28:37 18° NE
STARLINK-1113 4.4 21:27:42 10° NW 21:31:43 46° NNE 21:31:54 46° NE
Cosmos 1842 3.9 21:32:44 52° NW 21:32:44 52° NW 21:36:08 10° N
NOSS 3-2 (A) 4.1 21:26:03 10° NNW 21:33:42 76° NE 21:37:05 40° SE
STARLINK-1119 4.3 21:32:40 10° NW 21:36:41 50° NNE 21:36:41 50° NNE
Cosmos 1536 Rocket 4.3 21:37:47 42° ENE 21:37:47 42° ENE 21:41:10 10° NNE
Cosmos 968 Rocket 4.0 21:32:09 10° N 21:37:08 47° ENE 21:37:39 45° E
Meteor 1-21 4.1 21:38:29 64° SSW 21:39:23 83° W 21:45:02 10° N
Cosmos 1242 Rocket 3.7 21:41:39 43° N 21:41:39 43° N 21:44:14 10° N
STARLINK-1114 4.3 21:37:37 10° NW 21:41:28 53° NNE 21:41:28 53° NNE
USA 238 DEB 3.8 21:35:35 10° NW 21:42:53 83° NE 21:45:11 49° SE
USA 238 3.8 21:35:41 10° NW 21:42:58 83° NE 21:45:19 48° SE
ALOS 2 3.2 21:44:27 47° ENE 21:44:27 47° ENE 21:48:24 10° N
STARLINK-1130 (DARKSAT) 4.2 21:42:37 10° NW 21:46:17 54° N 21:46:17 54° N
Cosmos 1544 Rocket 3.8 21:44:18 10° N 21:48:06 65° NW 21:48:06 65° NW
Cosmos 1656 Rocket 3.9 21:48:58 54° ESE 21:48:58 54° ESE 21:54:16 10° NNE
ATLAS CENTAUR R/B 3.6 21:51:29 17° ENE 21:51:29 17° ENE 21:52:47 10° ENE
Cosmos 2263 4.0 21:51:00 76° S 21:51:24 83° ESE 21:57:02 10° NNE
STARLINK-1084 4.3 21:47:33 10° NW 21:51:01 54° NNW 21:51:01 54° NNW
Meteor 2-10 4.1 21:51:08 10° N 21:56:07 57° ENE 21:56:10 57° E
STARLINK-1098 4.3 21:52:31 10° NW 21:55:48 51° NNW 21:55:48 51° NNW
S3M 3.9 21:53:02 10° N 21:59:13 78° E 22:00:08 65° SSE
Cosmos 1486 Rocket 3.9 21:54:35 10° NNW 21:59:55 84° WSW 22:00:00 83° SW
Aureole 3 Rocket 4.3 21:54:04 10° NNW 21:59:59 71° W 22:01:57 51° SSW
In-Cosmos 22 4.3 22:00:20 54° E 22:00:20 54° E 22:05:22 10° NNE
STARLINK-1123 4.5 21:57:30 10° NW 22:00:36 48° NW 22:00:36 48° NW
BREEZE-M DEB (TANK) 3.9 21:57:44 10° WNW 22:04:24 41° WSW 22:04:24 41° WSW
Cosmos 1655 Rocket 3.8 22:04:26 66° S 22:05:24 89° W 22:11:42 10° N
Cosmos 1271 Rocket 3.9 22:07:09 41° NNW 22:07:09 41° NNW 22:10:03 10° N
SL-8 R/B 3.8 22:01:34 10° WNW 22:06:01 72° NNW 22:06:01 72° NNW
Cosmos 1833 4.3 22:03:19 10° NNW 22:08:56 65° ENE 22:09:37 59° E
Cosmos 1707 3.9 22:15:44 40° NW 22:15:44 40° NW 22:18:37 10° N
Cosmos 2098 Rocket 4.5 22:13:41 48° SE 22:14:58 55° E 22:22:08 10° NNE
Cosmos 1553 Rocket 4.2 22:08:54 10° NNW 22:15:03 58° W 22:16:01 52° SW
BREEZE-M DEB (TANK) 4.4 22:06:44 10° W 22:15:42 38° NNW 22:18:51 10° NE
USA 215 3.1 22:18:24 52° SE 22:20:14 88° SW 22:26:49 10° NW
Cosmos 1674 4.3 22:25:02 31° NE 22:25:02 31° NE 22:27:15 10° NNE
Helios 1A 3.5 22:24:53 56° NNE 22:24:53 56° NNE 22:28:18 10° N
Meteor 1-16 Rocket 4.0 22:20:01 10° N 22:25:34 79° E 22:25:47 78° ESE
Cosmos 1340 Rocket 3.7 22:24:01 10° N 22:27:01 49° N 22:27:01 49° N
Cosmos 1992 Rocket 4.3 22:30:07 55° W 22:30:32 56° WNW 22:35:40 10° NNE
Cosmos 1953 3.4 22:26:43 10° NNW 22:29:31 42° NNW 22:29:31 42° NNW
Helios 1B rocket 4.0 22:28:20 10° NNE 22:30:58 28° ENE 22:30:58 28° ENE
YAOGAN 11 4.5 22:33:19 60° NNE 22:33:19 60° NNE 22:37:03 10° N
COSMOS 2487 4.4 22:32:13 10° N 22:34:08 29° N 22:34:08 29° N
COSMOS 2455 2.7 22:39:19 75° S 22:39:50 85° ESE 22:45:54 10° NNE
NOSS 3-2 (C) 4.0 22:32:57 10° NW 22:40:39 71° WSW 22:42:46 52° S
EO 1 Delta rocket 4.1 22:35:37 10° NNE 22:41:29 72° E 22:41:34 72° ESE
BREEZE-M DEB (TANK) 3.9 22:35:51 10° WNW 22:42:01 48° W 22:42:01 48° W
Cosmos 2266 Rocket 4.1 22:43:06 55° WSW 22:44:01 61° W 22:50:03 10° N
NOSS 3-4 (A) 3.6 22:45:54 47° WSW 22:47:27 63° NW 22:53:42 10° NNE
NOSS 3-4 (C) 3.6 22:46:01 48° WSW 22:47:33 64° NW 22:53:49 10° NNE
ATLAS 3B R/B 3.0 22:42:07 10° NNW 22:48:53 62° NE 22:52:09 33° ESE
Exosat Rocket 4.4 22:40:10 10° NNW 22:49:39 84° WSW 22:51:24 56° S
CENTAUR R/B 3.2 22:41:43 10° NW 22:49:56 72° WSW 22:52:28 50° S
Cosmos 1892 Rocket 4.2 22:52:46 52° NE 22:52:46 52° NE 22:56:24 10° NNE
SL-4 R/B 2.8 22:52:55 55° WNW 22:53:25 58° NNW 22:58:10 10° NE
Cosmos 1809 Rocket 4.4 22:52:39 65° SE 22:53:27 73° E 22:59:38 10° NNE
Cosmos 1943 Rocket 4.4 22:51:05 10° W 22:54:50 18° NW 22:58:36 10° N
Cosmos 2369 Rocket 4.0 22:52:24 16° W 22:55:22 24° NW 22:59:55 10° N
PSLV R/B 4.0 22:54:41 10° NNE 22:58:37 60° NE 22:58:37 60° NE
Cosmos 1908 4.5 22:57:47 10° NNW 23:00:15 38° NNW 23:00:15 38° NNW
Cosmos 1726 Rocket 3.9 22:57:46 10° N 23:01:23 61° N 23:01:23 61° N
SL-16 R/B 4.4 22:59:30 10° ESE 23:04:08 24° ENE 23:08:51 10° N
Cosmos 1726 4.3 23:01:30 10° NNW 23:03:06 20° NW 23:03:06 20° NW
Cosmos 1777 Rocket 4.0 23:05:07 10° NNW 23:10:22 74° ENE 23:10:44 70° ESE
Meteor 1-24 Rocket 3.5 23:11:20 74° SE 23:11:34 76° E 23:16:58 10° NNE
ATLAS 2AS CENTAUR R/B 3.7 23:11:15 23° WSW 23:16:08 49° NW 23:23:48 10° NNE
Cosmos 2228 3.9 23:12:38 10° NNW 23:15:48 42° NW 23:15:48 42° NW
BREEZE-M DEB (TANK) 4.2 23:18:53 16° NE 23:18:53 16° NE 23:19:27 10° NE
Cosmos 921 Rocket 3.4 23:22:01 60° NE 23:22:01 60° NE 23:25:38 10° NNE
SJ 16-02 3.7 23:21:24 10° NNE 23:24:39 19° ENE 23:27:10 13° E
SL-19 R/B 4.4 23:21:10 10° NNE 23:26:37 63° ESE 23:27:24 57° SE
Cosmos 1626 3.2 23:29:00 43° N 23:29:00 43° N 23:31:38 10° N
ATLAS CENTAUR R/B 2.7 23:27:38 32° WNW 23:27:57 32° NW 23:31:45 10° NNE
SL-08 R/B 4.4 23:28:08 60° S 23:29:24 84° E 23:35:47 10° N
Cosmos 2058 Rocket 3.3 23:29:26 10° NNW 23:33:18 62° NW 23:33:18 62° NW
Meteor 2-16 Rocket 4.3 23:35:44 61° S 23:36:55 90° ESE 23:43:05 10° N
Meteor 2-5 Rocket 4.1 23:36:21 46° W 23:37:02 48° WNW 23:42:26 10° N
RESURS DK-1 3.0 23:37:48 50° NW 23:37:48 50° NW 23:41:28 10° NNE
Cosmos 1300 3.5 23:34:22 10° N 23:37:12 48° NNW 23:37:12 48° NNW
Cosmos 220 Rocket 4.1 23:39:11 77° N 23:39:11 77° N 23:43:18 10° NNE
Cosmos 1626 Rocket 3.6 23:42:28 69° ENE 23:42:28 69° ENE 23:46:35 10° NNE
Cosmos 1386 Rocket 4.5 23:42:36 53° SSE 23:44:03 74° E 23:50:12 10° N
BREEZE-M R/B 3.2 23:45:15 62° W 23:45:57 75° NNW 23:49:25 10° NE
Cosmos 1980 Rocket 4.4 23:46:31 11° ESE 23:48:43 14° E 23:51:31 10° ENE
Okean 1-7 Rocket 4.4 23:49:10 39° WNW 23:49:10 39° WNW 23:53:13 10° N
SL-14 R/B 4.5 23:53:14 33° NW 23:53:14 33° NW 23:56:07 10° N
IRAS Rocket 4.1 23:52:21 60° S 23:53:20 77° WSW 23:58:55 10° NNW
Cosmos 1356 Rocket 3.4 23:51:31 10° N 23:55:29 80° N 23:55:29 80° N
